Вернуться в каталог

STARLINK-38282

АктивенСвязьSSO
NORAD 100394·PAYLOAD·🇺🇸 United States

Запущен Aug 19, 2026 с Vandenberg Space Force Base

Loading…

Ближайшие Пролёты (ближайшие 24 часа)

TLE

СвежийSource: Space-Track

Эпоха: Sep 14, 2026, 20:52 UTC

1 A0394U 26190Z   26257.86999771 -.01046545  00000-0 -10586-1 0  9990
2 A0394  97.2837 111.8611 0001472 104.8291 255.3133 15.67903163  5482

Отслеживайте STARLINK-38282 в реальном времени с AllMySat

Download on the App Store